#datetime,building,power
2022-06-17T00:00:00,75s,1.26
2022-06-17T00:01:00,75s,1.26
2022-06-17T00:02:00,75s,1.34
2022-06-17T00:03:00,75s,1.34
2022-06-17T00:04:00,75s,1.42
2022-06-17T00:05:00,75s,1.36
2022-06-17T00:06:00,75s,1.26
2022-06-17T00:07:00,75s,1.19
2022-06-17T00:08:00,75s,1.22
2022-06-17T00:09:00,75s,1.22
2022-06-17T00:10:00,75s,1.20
2022-06-17T00:11:00,75s,1.20
2022-06-17T00:12:00,75s,1.21
2022-06-17T00:13:00,75s,1.20
2022-06-17T00:14:00,75s,1.28
2022-06-17T00:15:00,75s,1.28
2022-06-17T00:16:00,75s,1.36
2022-06-17T00:17:00,75s,1.28
2022-06-17T00:18:00,75s,1.29
2022-06-17T00:19:00,75s,1.25
2022-06-17T00:20:00,75s,1.60
2022-06-17T00:21:00,75s,1.24
2022-06-17T00:22:00,75s,1.56
2022-06-17T00:23:00,75s,1.22
2022-06-17T00:24:00,75s,1.22
2022-06-17T00:25:00,75s,1.22
2022-06-17T00:26:00,75s,1.30
2022-06-17T00:27:00,75s,1.37
2022-06-17T00:28:00,75s,1.38
2022-06-17T00:29:00,75s,1.30
2022-06-17T00:30:00,75s,1.31
2022-06-17T00:31:00,75s,1.30
2022-06-17T00:32:00,75s,1.71
2022-06-17T00:33:00,75s,1.32
2022-06-17T00:34:00,75s,1.32
2022-06-17T00:35:00,75s,1.27
2022-06-17T00:36:00,75s,1.28
2022-06-17T00:37:00,75s,1.35
2022-06-17T00:38:00,75s,1.48
2022-06-17T00:39:00,75s,1.44
2022-06-17T00:40:00,75s,1.36
2022-06-17T00:41:00,75s,1.35
2022-06-17T00:42:00,75s,1.28
2022-06-17T00:43:00,75s,1.61
2022-06-17T00:44:00,75s,1.27
2022-06-17T00:45:00,75s,1.28
2022-06-17T00:46:00,75s,1.27
2022-06-17T00:47:00,75s,1.27
2022-06-17T00:48:00,75s,1.28
2022-06-17T00:49:00,75s,1.66
2022-06-17T00:50:00,75s,1.35
2022-06-17T00:51:00,75s,1.27
2022-06-17T00:52:00,75s,1.28
2022-06-17T00:53:00,75s,1.20
2022-06-17T00:54:00,75s,1.19
2022-06-17T00:55:00,75s,1.19
2022-06-17T00:56:00,75s,1.19
2022-06-17T00:57:00,75s,1.21
2022-06-17T00:58:00,75s,1.19
2022-06-17T00:59:00,75s,1.27
2022-06-17T01:00:00,75s,1.47
2022-06-17T01:01:00,75s,1.29
2022-06-17T01:02:00,75s,1.30
2022-06-17T01:03:00,75s,1.27
2022-06-17T01:04:00,75s,1.20
2022-06-17T01:05:00,75s,1.19
2022-06-17T01:06:00,75s,1.25
2022-06-17T01:07:00,75s,1.36
2022-06-17T01:08:00,75s,1.17
2022-06-17T01:09:00,75s,1.16
2022-06-17T01:10:00,75s,1.18
2022-06-17T01:11:00,75s,1.29
2022-06-17T01:12:00,75s,1.29
2022-06-17T01:13:00,75s,1.37
2022-06-17T01:14:00,75s,1.29
2022-06-17T01:15:00,75s,1.29
2022-06-17T01:16:00,75s,1.36
2022-06-17T01:17:00,75s,1.62
2022-06-17T01:18:00,75s,1.28
2022-06-17T01:19:00,75s,1.22
2022-06-17T01:20:00,75s,1.21
2022-06-17T01:21:00,75s,1.15
2022-06-17T01:22:00,75s,1.23
2022-06-17T01:23:00,75s,1.18
2022-06-17T01:24:00,75s,1.17
2022-06-17T01:25:00,75s,1.60
2022-06-17T01:26:00,75s,1.24
2022-06-17T01:27:00,75s,1.24
2022-06-17T01:28:00,75s,1.17
2022-06-17T01:29:00,75s,1.25
2022-06-17T01:30:00,75s,1.17
2022-06-17T01:31:00,75s,1.09
2022-06-17T01:32:00,75s,1.06
2022-06-17T01:33:00,75s,1.14
2022-06-17T01:34:00,75s,1.12
2022-06-17T01:35:00,75s,1.13
2022-06-17T01:36:00,75s,1.12
2022-06-17T01:37:00,75s,1.63
2022-06-17T01:38:00,75s,1.19
2022-06-17T01:39:00,75s,1.19
2022-06-17T01:40:00,75s,1.21
2022-06-17T01:41:00,75s,1.26
2022-06-17T01:42:00,75s,1.27
2022-06-17T01:43:00,75s,1.21
2022-06-17T01:44:00,75s,1.37
2022-06-17T01:45:00,75s,1.29
2022-06-17T01:46:00,75s,1.30
2022-06-17T01:47:00,75s,1.28
2022-06-17T01:48:00,75s,1.20
2022-06-17T01:49:00,75s,1.40
2022-06-17T01:50:00,75s,1.20
2022-06-17T01:51:00,75s,1.20
2022-06-17T01:52:00,75s,1.30
2022-06-17T01:53:00,75s,1.42
2022-06-17T01:54:00,75s,1.76
2022-06-17T01:55:00,75s,1.57
2022-06-17T01:56:00,75s,1.33
2022-06-17T01:57:00,75s,1.32
2022-06-17T01:58:00,75s,1.40
2022-06-17T01:59:00,75s,1.40
2022-06-17T02:00:00,75s,1.39
2022-06-17T02:01:00,75s,1.53
2022-06-17T02:02:00,75s,1.32
2022-06-17T02:03:00,75s,1.32
2022-06-17T02:04:00,75s,1.35
2022-06-17T02:05:00,75s,1.40
2022-06-17T02:06:00,75s,1.59
2022-06-17T02:07:00,75s,1.31
2022-06-17T02:08:00,75s,1.32
2022-06-17T02:09:00,75s,1.31
2022-06-17T02:10:00,75s,1.29
2022-06-17T02:11:00,75s,1.61
2022-06-17T02:12:00,75s,1.40
2022-06-17T02:13:00,75s,1.65
2022-06-17T02:14:00,75s,1.19
2022-06-17T02:15:00,75s,1.19
2022-06-17T02:16:00,75s,1.27
2022-06-17T02:17:00,75s,1.28
2022-06-17T02:18:00,75s,1.28
2022-06-17T02:19:00,75s,1.20
2022-06-17T02:20:00,75s,1.21
2022-06-17T02:21:00,75s,1.19
2022-06-17T02:22:00,75s,1.20
2022-06-17T02:23:00,75s,1.27
2022-06-17T02:24:00,75s,1.27
2022-06-17T02:25:00,75s,1.19
2022-06-17T02:26:00,75s,1.20
2022-06-17T02:27:00,75s,1.27
2022-06-17T02:28:00,75s,1.58
2022-06-17T02:29:00,75s,1.64
2022-06-17T02:30:00,75s,1.19
2022-06-17T02:31:00,75s,1.19
2022-06-17T02:32:00,75s,1.20
2022-06-17T02:33:00,75s,1.20
2022-06-17T02:34:00,75s,1.36
2022-06-17T02:35:00,75s,1.36
2022-06-17T02:36:00,75s,1.35
2022-06-17T02:37:00,75s,1.28
2022-06-17T02:38:00,75s,1.45
2022-06-17T02:39:00,75s,1.36
2022-06-17T02:40:00,75s,1.35
2022-06-17T02:41:00,75s,1.33
2022-06-17T02:42:00,75s,1.32
2022-06-17T02:43:00,75s,1.30
2022-06-17T02:44:00,75s,1.30
2022-06-17T02:45:00,75s,1.30
2022-06-17T02:46:00,75s,1.41
2022-06-17T02:47:00,75s,1.37
2022-06-17T02:48:00,75s,1.37
2022-06-17T02:49:00,75s,1.86
2022-06-17T02:50:00,75s,1.40
2022-06-17T02:51:00,75s,1.39
2022-06-17T02:52:00,75s,1.25
2022-06-17T02:53:00,75s,1.18
2022-06-17T02:54:00,75s,10.39
2022-06-17T02:55:00,75s,10.29
2022-06-17T02:56:00,75s,10.21
2022-06-17T02:57:00,75s,10.52
2022-06-17T02:58:00,75s,4.69
2022-06-17T02:59:00,75s,1.25
2022-06-17T03:00:00,75s,1.17
2022-06-17T03:01:00,75s,1.60
2022-06-17T03:02:00,75s,1.47
2022-06-17T03:03:00,75s,1.24
2022-06-17T03:04:00,75s,1.22
2022-06-17T03:05:00,75s,1.13
2022-06-17T03:06:00,75s,1.47
2022-06-17T03:07:00,75s,1.13
2022-06-17T03:08:00,75s,1.14
2022-06-17T03:09:00,75s,1.23
2022-06-17T03:10:00,75s,1.23
2022-06-17T03:11:00,75s,1.13
2022-06-17T03:12:00,75s,1.13
2022-06-17T03:13:00,75s,1.45
2022-06-17T03:14:00,75s,1.08
2022-06-17T03:15:00,75s,1.18
2022-06-17T03:16:00,75s,1.17
2022-06-17T03:17:00,75s,1.17
2022-06-17T03:18:00,75s,1.25
2022-06-17T03:19:00,75s,1.31
2022-06-17T03:20:00,75s,1.31
2022-06-17T03:21:00,75s,1.30
2022-06-17T03:22:00,75s,1.31
2022-06-17T03:23:00,75s,1.32
2022-06-17T03:24:00,75s,1.31
2022-06-17T03:25:00,75s,1.53
2022-06-17T03:26:00,75s,1.60
2022-06-17T03:27:00,75s,1.22
2022-06-17T03:28:00,75s,1.23
2022-06-17T03:29:00,75s,1.27
2022-06-17T03:30:00,75s,1.27
2022-06-17T03:31:00,75s,1.27
2022-06-17T03:32:00,75s,1.35
2022-06-17T03:33:00,75s,1.73
2022-06-17T03:34:00,75s,1.26
2022-06-17T03:35:00,75s,1.19
2022-06-17T03:36:00,75s,1.18
2022-06-17T03:37:00,75s,1.18
2022-06-17T03:38:00,75s,1.18
2022-06-17T03:39:00,75s,1.25
2022-06-17T03:40:00,75s,1.42
2022-06-17T03:41:00,75s,1.33
2022-06-17T03:42:00,75s,1.28
2022-06-17T03:43:00,75s,1.26
2022-06-17T03:44:00,75s,1.33
2022-06-17T03:45:00,75s,1.32
2022-06-17T03:46:00,75s,1.28
2022-06-17T03:47:00,75s,1.59
2022-06-17T03:48:00,75s,1.20
2022-06-17T03:49:00,75s,1.20
2022-06-17T03:50:00,75s,1.19
2022-06-17T03:51:00,75s,1.18
2022-06-17T03:52:00,75s,1.19
2022-06-17T03:53:00,75s,1.19
2022-06-17T03:54:00,75s,1.26
2022-06-17T03:55:00,75s,1.28
2022-06-17T03:56:00,75s,1.33
2022-06-17T03:57:00,75s,1.34
2022-06-17T03:58:00,75s,1.26
2022-06-17T03:59:00,75s,1.31
2022-06-17T04:00:00,75s,1.49
2022-06-17T04:01:00,75s,1.28
2022-06-17T04:02:00,75s,1.28
2022-06-17T04:03:00,75s,1.66
2022-06-17T04:04:00,75s,1.40
2022-06-17T04:05:00,75s,1.27
2022-06-17T04:06:00,75s,1.27
2022-06-17T04:07:00,75s,1.42
2022-06-17T04:08:00,75s,1.42
2022-06-17T04:09:00,75s,1.42
2022-06-17T04:10:00,75s,1.27
2022-06-17T04:11:00,75s,1.26
2022-06-17T04:12:00,75s,1.26
2022-06-17T04:13:00,75s,1.26
2022-06-17T04:14:00,75s,1.34
2022-06-17T04:15:00,75s,1.16
2022-06-17T04:16:00,75s,1.16
2022-06-17T04:17:00,75s,1.22
2022-06-17T04:18:00,75s,1.30
2022-06-17T04:19:00,75s,1.37
2022-06-17T04:20:00,75s,1.38
2022-06-17T04:21:00,75s,1.31
2022-06-17T04:22:00,75s,1.23
2022-06-17T04:23:00,75s,1.27
2022-06-17T04:24:00,75s,1.23
2022-06-17T04:25:00,75s,1.58
2022-06-17T04:26:00,75s,1.41
2022-06-17T04:27:00,75s,1.32
2022-06-17T04:28:00,75s,1.54
2022-06-17T04:29:00,75s,1.31
2022-06-17T04:30:00,75s,1.31
2022-06-17T04:31:00,75s,1.39
2022-06-17T04:32:00,75s,1.31
2022-06-17T04:33:00,75s,1.32
2022-06-17T04:34:00,75s,1.18
2022-06-17T04:35:00,75s,1.62
2022-06-17T04:36:00,75s,1.14
2022-06-17T04:37:00,75s,1.14
2022-06-17T04:38:00,75s,1.23
2022-06-17T04:39:00,75s,1.22
2022-06-17T04:40:00,75s,1.22
2022-06-17T04:41:00,75s,1.29
2022-06-17T04:42:00,75s,1.29
2022-06-17T04:43:00,75s,1.36
2022-06-17T04:44:00,75s,1.68
2022-06-17T04:45:00,75s,1.22
2022-06-17T04:46:00,75s,1.22
2022-06-17T04:47:00,75s,1.22
2022-06-17T04:48:00,75s,1.24
2022-06-17T04:49:00,75s,1.21
2022-06-17T04:50:00,75s,1.22
2022-06-17T04:51:00,75s,1.21
2022-06-17T04:52:00,75s,1.22
2022-06-17T04:53:00,75s,1.22
2022-06-17T04:54:00,75s,1.32
2022-06-17T04:55:00,75s,1.70
2022-06-17T04:56:00,75s,1.30
2022-06-17T04:57:00,75s,1.22
2022-06-17T04:58:00,75s,1.23
2022-06-17T04:59:00,75s,1.22
2022-06-17T05:00:00,75s,1.12
2022-06-17T05:01:00,75s,1.13
2022-06-17T05:02:00,75s,1.19
2022-06-17T05:03:00,75s,1.18
2022-06-17T05:04:00,75s,1.18
2022-06-17T05:05:00,75s,1.31
2022-06-17T05:06:00,75s,1.31
2022-06-17T05:07:00,75s,1.31
2022-06-17T05:08:00,75s,1.26
2022-06-17T05:09:00,75s,1.24
2022-06-17T05:10:00,75s,1.97
2022-06-17T05:11:00,75s,1.28
2022-06-17T05:12:00,75s,1.27
2022-06-17T05:13:00,75s,1.28
2022-06-17T05:14:00,75s,1.18
2022-06-17T05:15:00,75s,1.47
2022-06-17T05:16:00,75s,1.15
2022-06-17T05:17:00,75s,1.22
2022-06-17T05:18:00,75s,1.22
2022-06-17T05:19:00,75s,1.25
2022-06-17T05:20:00,75s,1.23
2022-06-17T05:21:00,75s,1.23
2022-06-17T05:22:00,75s,1.15
2022-06-17T05:23:00,75s,1.24
2022-06-17T05:24:00,75s,1.76
2022-06-17T05:25:00,75s,1.26
2022-06-17T05:26:00,75s,1.19
2022-06-17T05:27:00,75s,1.18
2022-06-17T05:28:00,75s,1.54
2022-06-17T05:29:00,75s,1.34
2022-06-17T05:30:00,75s,1.37
2022-06-17T05:31:00,75s,1.37
2022-06-17T05:32:00,75s,1.81
2022-06-17T05:33:00,75s,1.93
2022-06-17T05:34:00,75s,1.48
2022-06-17T05:35:00,75s,1.50
2022-06-17T05:36:00,75s,1.50
2022-06-17T05:37:00,75s,1.77
2022-06-17T05:38:00,75s,1.39
2022-06-17T05:39:00,75s,1.36
2022-06-17T05:40:00,75s,1.36
2022-06-17T05:41:00,75s,1.44
2022-06-17T05:42:00,75s,1.44
2022-06-17T05:43:00,75s,1.44
2022-06-17T05:44:00,75s,1.45
2022-06-17T05:45:00,75s,1.44
2022-06-17T05:46:00,75s,1.51
2022-06-17T05:47:00,75s,1.50
2022-06-17T05:48:00,75s,1.51
2022-06-17T05:49:00,75s,1.50
2022-06-17T05:50:00,75s,1.63
2022-06-17T05:51:00,75s,1.44
2022-06-17T05:52:00,75s,1.44
2022-06-17T05:53:00,75s,1.49
2022-06-17T05:54:00,75s,1.49
2022-06-17T05:55:00,75s,1.50
2022-06-17T05:56:00,75s,1.77
2022-06-17T05:57:00,75s,1.48
2022-06-17T05:58:00,75s,1.83
2022-06-17T05:59:00,75s,1.58
2022-06-17T06:00:00,75s,1.87
2022-06-17T06:01:00,75s,2.81
2022-06-17T06:02:00,75s,3.77
2022-06-17T06:03:00,75s,4.34
2022-06-17T06:04:00,75s,3.92
2022-06-17T06:05:00,75s,3.66
2022-06-17T06:06:00,75s,14.23
2022-06-17T06:07:00,75s,14.03
2022-06-17T06:08:00,75s,13.99
2022-06-17T06:09:00,75s,14.00
2022-06-17T06:10:00,75s,14.01
2022-06-17T06:11:00,75s,14.08
2022-06-17T06:12:00,75s,13.92
2022-06-17T06:13:00,75s,14.08
2022-06-17T06:14:00,75s,14.71
2022-06-17T06:15:00,75s,14.38
2022-06-17T06:16:00,75s,26.12
2022-06-17T06:17:00,75s,25.19
2022-06-17T06:18:00,75s,20.36
2022-06-17T06:19:00,75s,19.93
2022-06-17T06:20:00,75s,20.00
2022-06-17T06:21:00,75s,20.01
2022-06-17T06:22:00,75s,19.99
2022-06-17T06:23:00,75s,19.91
2022-06-17T06:24:00,75s,19.89
2022-06-17T06:25:00,75s,19.88
2022-06-17T06:26:00,75s,19.90
2022-06-17T06:27:00,75s,14.27
2022-06-17T06:28:00,75s,14.30
2022-06-17T06:29:00,75s,14.20
2022-06-17T06:30:00,75s,14.19
2022-06-17T06:31:00,75s,14.53
2022-06-17T06:32:00,75s,14.16
2022-06-17T06:33:00,75s,14.21
2022-06-17T06:34:00,75s,14.18
2022-06-17T06:35:00,75s,14.22
2022-06-17T06:36:00,75s,14.09
2022-06-17T06:37:00,75s,14.13
2022-06-17T06:38:00,75s,14.24
2022-06-17T06:39:00,75s,14.55
2022-06-17T06:40:00,75s,14.23
2022-06-17T06:41:00,75s,14.17
2022-06-17T06:42:00,75s,14.25
2022-06-17T06:43:00,75s,14.53
2022-06-17T06:44:00,75s,14.52
2022-06-17T06:45:00,75s,14.54
2022-06-17T06:46:00,75s,14.52
2022-06-17T06:47:00,75s,14.51
2022-06-17T06:48:00,75s,4.26
2022-06-17T06:49:00,75s,4.26
2022-06-17T06:50:00,75s,4.33
2022-06-17T06:51:00,75s,4.34
2022-06-17T06:52:00,75s,4.66
2022-06-17T06:53:00,75s,4.27
2022-06-17T06:54:00,75s,4.26
2022-06-17T06:55:00,75s,4.26
2022-06-17T06:56:00,75s,4.25
2022-06-17T06:57:00,75s,4.27
2022-06-17T06:58:00,75s,14.71
2022-06-17T06:59:00,75s,14.57
2022-06-17T07:00:00,75s,14.21
2022-06-17T07:01:00,75s,14.16
2022-06-17T07:02:00,75s,14.17
2022-06-17T07:03:00,75s,14.21
2022-06-17T07:04:00,75s,14.25
2022-06-17T07:05:00,75s,14.37
2022-06-17T07:06:00,75s,13.92
2022-06-17T07:07:00,75s,13.92
2022-06-17T07:08:00,75s,26.67
2022-06-17T07:09:00,75s,25.61
2022-06-17T07:10:00,75s,25.24
2022-06-17T07:11:00,75s,20.30
2022-06-17T07:12:00,75s,19.41
2022-06-17T07:13:00,75s,19.40
2022-06-17T07:14:00,75s,19.35
2022-06-17T07:15:00,75s,19.44
2022-06-17T07:16:00,75s,19.50
2022-06-17T07:17:00,75s,19.98
2022-06-17T07:18:00,75s,19.38
2022-06-17T07:19:00,75s,19.40
2022-06-17T07:20:00,75s,19.42
2022-06-17T07:21:00,75s,19.50
2022-06-17T07:22:00,75s,19.52
2022-06-17T07:23:00,75s,19.93
2022-06-17T07:24:00,75s,19.61
2022-06-17T07:25:00,75s,19.63
2022-06-17T07:26:00,75s,19.98
2022-06-17T07:27:00,75s,21.26
2022-06-17T07:28:00,75s,22.59
2022-06-17T07:29:00,75s,23.60
2022-06-17T07:30:00,75s,33.31
2022-06-17T07:31:00,75s,31.90
2022-06-17T07:32:00,75s,32.61
2022-06-17T07:33:00,75s,32.28
2022-06-17T07:34:00,75s,31.88
2022-06-17T07:35:00,75s,22.65
2022-06-17T07:36:00,75s,21.95
2022-06-17T07:37:00,75s,20.95
2022-06-17T07:38:00,75s,20.45
2022-06-17T07:39:00,75s,19.92
2022-06-17T07:40:00,75s,19.59
2022-06-17T07:41:00,75s,19.46
2022-06-17T07:42:00,75s,19.46
2022-06-17T07:43:00,75s,19.47
2022-06-17T07:44:00,75s,19.51
2022-06-17T07:45:00,75s,19.58
2022-06-17T07:46:00,75s,19.53
2022-06-17T07:47:00,75s,19.60
2022-06-17T07:48:00,75s,19.59
2022-06-17T07:49:00,75s,19.74
2022-06-17T07:50:00,75s,19.70
2022-06-17T07:51:00,75s,19.74
2022-06-17T07:52:00,75s,19.60
2022-06-17T07:53:00,75s,19.73
2022-06-17T09:58:00,75s,6.10
2022-06-17T09:59:00,75s,16.91
2022-06-17T10:00:00,75s,16.92
2022-06-17T10:01:00,75s,17.02
2022-06-17T10:02:00,75s,17.02
2022-06-17T10:03:00,75s,17.00
2022-06-17T10:04:00,75s,16.66
2022-06-17T10:05:00,75s,16.67
2022-06-17T10:06:00,75s,17.07
2022-06-17T10:07:00,75s,16.79
2022-06-17T10:08:00,75s,16.73
2022-06-17T10:09:00,75s,28.22
2022-06-17T10:10:00,75s,29.41
2022-06-17T10:11:00,75s,29.32
2022-06-17T10:12:00,75s,29.78
2022-06-17T10:13:00,75s,29.02
2022-06-17T10:14:00,75s,29.45
2022-06-17T10:15:00,75s,28.92
2022-06-17T10:16:00,75s,28.97
2022-06-17T10:17:00,75s,28.82
2022-06-17T10:18:00,75s,28.78
2022-06-17T10:19:00,75s,28.84
2022-06-17T10:20:00,75s,28.36
2022-06-17T10:21:00,75s,28.34
2022-06-17T10:22:00,75s,28.31
2022-06-17T10:23:00,75s,27.99
2022-06-17T10:24:00,75s,28.31
2022-06-17T10:25:00,75s,28.02
2022-06-17T10:26:00,75s,27.99
2022-06-17T10:27:00,75s,27.78
2022-06-17T10:28:00,75s,28.17
2022-06-17T10:29:00,75s,27.83
2022-06-17T10:30:00,75s,25.82
2022-06-17T10:31:00,75s,22.81
2022-06-17T10:32:00,75s,21.48
2022-06-17T10:33:00,75s,22.39
2022-06-17T10:34:00,75s,22.30
2022-06-17T10:35:00,75s,21.60
2022-06-17T10:36:00,75s,21.64
2022-06-17T10:37:00,75s,21.69
2022-06-17T10:38:00,75s,21.43
2022-06-17T10:39:00,75s,21.42
2022-06-17T10:40:00,75s,21.54
2022-06-17T10:41:00,75s,22.03
2022-06-17T10:42:00,75s,22.18
2022-06-17T10:43:00,75s,24.34
2022-06-17T10:44:00,75s,25.75
2022-06-17T10:45:00,75s,27.41
2022-06-17T10:46:00,75s,28.19
2022-06-17T10:47:00,75s,28.25
2022-06-17T10:48:00,75s,28.32
2022-06-17T10:49:00,75s,28.25
2022-06-17T10:50:00,75s,28.37
2022-06-17T10:51:00,75s,28.78
2022-06-17T10:52:00,75s,27.88
2022-06-17T10:53:00,75s,27.97
2022-06-17T10:54:00,75s,28.40
2022-06-17T10:55:00,75s,28.04
2022-06-17T10:56:00,75s,28.38
2022-06-17T10:57:00,75s,28.04
2022-06-17T10:58:00,75s,28.19
2022-06-17T10:59:00,75s,27.56
2022-06-17T11:00:00,75s,26.57
2022-06-17T11:01:00,75s,26.27
2022-06-17T11:02:00,75s,25.83
2022-06-17T11:03:00,75s,22.79
2022-06-17T11:04:00,75s,20.59
2022-06-17T11:05:00,75s,20.78
2022-06-17T11:06:00,75s,20.77
2022-06-17T11:07:00,75s,20.75
2022-06-17T11:08:00,75s,20.55
2022-06-17T11:09:00,75s,20.80
2022-06-17T11:10:00,75s,20.42
2022-06-17T11:11:00,75s,14.87
2022-06-17T11:12:00,75s,14.86
2022-06-17T11:13:00,75s,14.83
2022-06-17T11:14:00,75s,14.83
2022-06-17T11:15:00,75s,14.90
2022-06-17T11:16:00,75s,15.00
2022-06-17T11:17:00,75s,15.01
2022-06-17T11:18:00,75s,15.11
2022-06-17T11:19:00,75s,15.01
2022-06-17T11:20:00,75s,15.04
2022-06-17T11:21:00,75s,14.95
2022-06-17T11:22:00,75s,14.09
2022-06-17T11:23:00,75s,3.17
2022-06-17T11:24:00,75s,3.54
2022-06-17T11:25:00,75s,3.12
2022-06-17T11:26:00,75s,3.12
2022-06-17T11:27:00,75s,3.33
2022-06-17T11:28:00,75s,3.20
2022-06-17T11:29:00,75s,3.20
2022-06-17T11:30:00,75s,3.21
2022-06-17T11:31:00,75s,3.17
2022-06-17T11:32:00,75s,14.12
2022-06-17T11:33:00,75s,13.99
2022-06-17T11:34:00,75s,13.93
2022-06-17T11:35:00,75s,13.94
2022-06-17T11:36:00,75s,13.88
2022-06-17T11:37:00,75s,13.89
2022-06-17T11:38:00,75s,13.91
2022-06-17T11:39:00,75s,14.04
2022-06-17T11:40:00,75s,14.12
2022-06-17T11:41:00,75s,14.03
2022-06-17T11:42:00,75s,24.65
2022-06-17T11:43:00,75s,25.82
2022-06-17T11:44:00,75s,20.75
2022-06-17T11:45:00,75s,20.32
2022-06-17T11:46:00,75s,19.64
2022-06-17T11:47:00,75s,20.29
2022-06-17T11:48:00,75s,19.70
2022-06-17T11:49:00,75s,19.69
2022-06-17T11:50:00,75s,19.68
2022-06-17T11:51:00,75s,13.99
2022-06-17T11:52:00,75s,14.07
2022-06-17T11:53:00,75s,14.05
2022-06-17T11:54:00,75s,14.14
2022-06-17T11:55:00,75s,14.32
2022-06-17T11:56:00,75s,14.12
2022-06-17T11:57:00,75s,14.00
2022-06-17T11:58:00,75s,14.09
2022-06-17T11:59:00,75s,14.02
2022-06-17T12:00:00,75s,14.05
2022-06-17T12:01:00,75s,13.96
2022-06-17T12:02:00,75s,14.25
2022-06-17T12:03:00,75s,13.88
2022-06-17T12:04:00,75s,3.04
2022-06-17T12:05:00,75s,3.12
2022-06-17T12:06:00,75s,3.16
2022-06-17T12:07:00,75s,3.13
2022-06-17T12:08:00,75s,3.06
2022-06-17T12:09:00,75s,3.08
2022-06-17T12:10:00,75s,3.16
2022-06-17T12:11:00,75s,3.16
2022-06-17T12:12:00,75s,3.14
2022-06-17T12:13:00,75s,14.00
2022-06-17T12:14:00,75s,13.90
2022-06-17T12:15:00,75s,13.88
2022-06-17T12:16:00,75s,13.86
2022-06-17T12:17:00,75s,23.06
2022-06-17T12:18:00,75s,22.84
2022-06-17T12:19:00,75s,23.20
2022-06-17T12:20:00,75s,22.66
2022-06-17T12:21:00,75s,22.74
2022-06-17T12:22:00,75s,14.40
2022-06-17T12:23:00,75s,19.87
2022-06-17T12:24:00,75s,19.89
2022-06-17T12:25:00,75s,19.94
2022-06-17T12:26:00,75s,19.83
2022-06-17T12:27:00,75s,19.88
2022-06-17T12:28:00,75s,14.72
2022-06-17T12:29:00,75s,14.32
2022-06-17T12:30:00,75s,14.16
2022-06-17T12:31:00,75s,14.47
2022-06-17T12:32:00,75s,14.41
2022-06-17T12:33:00,75s,14.40
2022-06-17T12:34:00,75s,14.32
2022-06-17T12:35:00,75s,14.43
2022-06-17T12:36:00,75s,14.44
2022-06-17T12:37:00,75s,14.32
2022-06-17T12:38:00,75s,14.94
2022-06-17T12:39:00,75s,15.11
2022-06-17T12:40:00,75s,14.64
2022-06-17T12:41:00,75s,14.71
2022-06-17T12:42:00,75s,3.89
2022-06-17T12:43:00,75s,3.59
2022-06-17T12:44:00,75s,3.82
2022-06-17T12:45:00,75s,4.25
2022-06-17T12:46:00,75s,3.58
2022-06-17T12:47:00,75s,3.59
2022-06-17T12:48:00,75s,3.47
2022-06-17T12:49:00,75s,3.50
2022-06-17T12:50:00,75s,3.61
2022-06-17T12:51:00,75s,3.60
2022-06-17T12:52:00,75s,14.76
2022-06-17T12:53:00,75s,14.79
2022-06-17T12:54:00,75s,14.79
2022-06-17T12:55:00,75s,15.16
2022-06-17T12:56:00,75s,15.37
2022-06-17T12:57:00,75s,14.90
2022-06-17T12:58:00,75s,14.96
2022-06-17T12:59:00,75s,14.88
2022-06-17T13:00:00,75s,14.84
2022-06-17T13:01:00,75s,15.14
2022-06-17T13:02:00,75s,27.24
2022-06-17T13:03:00,75s,27.48
2022-06-17T13:04:00,75s,26.99
2022-06-17T13:05:00,75s,20.53
2022-06-17T13:06:00,75s,20.58
2022-06-17T13:07:00,75s,20.60
2022-06-17T13:08:00,75s,20.68
2022-06-17T13:09:00,75s,20.70
2022-06-17T13:10:00,75s,20.55
2022-06-17T13:11:00,75s,20.46
2022-06-17T13:12:00,75s,20.48
2022-06-17T13:13:00,75s,20.59
2022-06-17T13:14:00,75s,20.43
2022-06-17T13:15:00,75s,20.66
2022-06-17T13:16:00,75s,20.55
2022-06-17T13:17:00,75s,20.53
2022-06-17T13:18:00,75s,15.10
2022-06-17T13:19:00,75s,14.64
2022-06-17T13:20:00,75s,14.81
2022-06-17T13:21:00,75s,14.90
2022-06-17T13:22:00,75s,14.62
2022-06-17T13:23:00,75s,14.50
2022-06-17T13:24:00,75s,14.41
2022-06-17T13:25:00,75s,14.43
2022-06-17T13:26:00,75s,14.50
2022-06-17T13:27:00,75s,14.94
2022-06-17T13:28:00,75s,14.57
2022-06-17T13:29:00,75s,14.55
2022-06-17T13:30:00,75s,14.61
2022-06-17T13:31:00,75s,3.42
2022-06-17T13:32:00,75s,3.40
2022-06-17T13:33:00,75s,3.59
2022-06-17T13:34:00,75s,3.39
2022-06-17T13:35:00,75s,3.36
2022-06-17T13:36:00,75s,3.43
2022-06-17T13:37:00,75s,3.43
2022-06-17T13:38:00,75s,3.49
2022-06-17T13:39:00,75s,3.59
2022-06-17T13:40:00,75s,14.40
2022-06-17T13:41:00,75s,14.38
2022-06-17T13:42:00,75s,14.25
2022-06-17T13:43:00,75s,14.24
2022-06-17T13:44:00,75s,14.23
2022-06-17T13:45:00,75s,14.22
2022-06-17T13:46:00,75s,14.30
2022-06-17T13:47:00,75s,14.34
2022-06-17T13:48:00,75s,14.35
2022-06-17T13:49:00,75s,14.36
2022-06-17T13:50:00,75s,20.35
2022-06-17T13:51:00,75s,20.35
2022-06-17T13:52:00,75s,20.26
2022-06-17T13:53:00,75s,20.19
2022-06-17T13:54:00,75s,14.49
2022-06-17T13:55:00,75s,14.50
2022-06-17T13:56:00,75s,14.47
2022-06-17T13:57:00,75s,14.45
2022-06-17T13:58:00,75s,14.41
2022-06-17T13:59:00,75s,14.44
2022-06-17T14:00:00,75s,14.43
2022-06-17T14:01:00,75s,14.40
2022-06-17T14:02:00,75s,14.54
2022-06-17T14:03:00,75s,14.51
2022-06-17T14:04:00,75s,3.62
2022-06-17T14:05:00,75s,3.49
2022-06-17T14:06:00,75s,3.55
2022-06-17T14:07:00,75s,3.47
2022-06-17T14:08:00,75s,3.48
2022-06-17T14:09:00,75s,3.47
2022-06-17T14:10:00,75s,3.46
2022-06-17T14:11:00,75s,14.08
2022-06-17T14:12:00,75s,14.38
2022-06-17T14:13:00,75s,14.43
2022-06-17T14:14:00,75s,14.61
2022-06-17T14:15:00,75s,14.54
2022-06-17T14:16:00,75s,14.54
2022-06-17T14:17:00,75s,14.62
2022-06-17T14:18:00,75s,14.89
2022-06-17T14:19:00,75s,14.47
2022-06-17T14:20:00,75s,14.42
2022-06-17T14:21:00,75s,14.38
2022-06-17T14:22:00,75s,20.12
2022-06-17T14:23:00,75s,20.23
2022-06-17T14:24:00,75s,20.27
2022-06-17T14:25:00,75s,14.52
2022-06-17T14:26:00,75s,14.51
2022-06-17T14:27:00,75s,14.24
2022-06-17T14:28:00,75s,14.22
2022-06-17T14:29:00,75s,14.63
2022-06-17T14:30:00,75s,14.64
2022-06-17T14:31:00,75s,14.70
2022-06-17T14:32:00,75s,14.69
2022-06-17T14:33:00,75s,14.72
2022-06-17T14:34:00,75s,14.70
2022-06-17T14:35:00,75s,3.81
2022-06-17T14:36:00,75s,3.89
2022-06-17T14:37:00,75s,3.89
2022-06-17T14:38:00,75s,3.89
2022-06-17T14:39:00,75s,3.80
2022-06-17T14:40:00,75s,3.87
2022-06-17T14:41:00,75s,3.85
2022-06-17T14:42:00,75s,4.12
2022-06-17T14:43:00,75s,3.88
2022-06-17T14:44:00,75s,14.65
2022-06-17T14:45:00,75s,14.65
2022-06-17T14:46:00,75s,15.02
2022-06-17T14:47:00,75s,14.42
2022-06-17T14:48:00,75s,14.36
2022-06-17T14:49:00,75s,14.28
2022-06-17T14:50:00,75s,14.15
2022-06-17T14:51:00,75s,14.13
2022-06-17T14:52:00,75s,14.07
2022-06-17T14:53:00,75s,14.00
2022-06-17T14:54:00,75s,25.20
2022-06-17T14:55:00,75s,24.91
2022-06-17T14:56:00,75s,23.10
2022-06-17T14:57:00,75s,22.10
2022-06-17T14:58:00,75s,24.11
2022-06-17T14:59:00,75s,25.17
2022-06-17T15:00:00,75s,25.73
2022-06-17T15:01:00,75s,22.50
2022-06-17T15:02:00,75s,25.81
2022-06-17T15:03:00,75s,25.97
2022-06-17T15:04:00,75s,26.34
2022-06-17T15:05:00,75s,26.05
2022-06-17T15:06:00,75s,26.02
2022-06-17T15:07:00,75s,26.04
2022-06-17T15:08:00,75s,25.05
2022-06-17T15:09:00,75s,24.59
2022-06-17T15:10:00,75s,23.50
2022-06-17T15:11:00,75s,22.00
2022-06-17T15:12:00,75s,21.04
2022-06-17T15:13:00,75s,20.77
2022-06-17T15:14:00,75s,20.66
2022-06-17T15:15:00,75s,20.91
2022-06-17T15:16:00,75s,20.68
2022-06-17T15:17:00,75s,20.71
2022-06-17T15:18:00,75s,20.63
2022-06-17T15:19:00,75s,20.78
2022-06-17T15:20:00,75s,20.70
2022-06-17T15:21:00,75s,20.71
2022-06-17T15:22:00,75s,20.68
2022-06-17T15:23:00,75s,20.77
2022-06-17T15:24:00,75s,20.80
2022-06-17T15:25:00,75s,20.83
2022-06-17T15:26:00,75s,21.25
2022-06-17T15:27:00,75s,20.69
2022-06-17T15:28:00,75s,20.74
2022-06-17T15:29:00,75s,20.78
2022-06-17T15:30:00,75s,20.79
2022-06-17T15:31:00,75s,20.79
2022-06-17T15:32:00,75s,20.75
2022-06-17T15:33:00,75s,20.65
2022-06-17T15:34:00,75s,20.64
2022-06-17T15:35:00,75s,20.63
2022-06-17T15:36:00,75s,20.69